| time (UTC) | temp F | wind direction | speed knots | gust knots | rain 1hr in | rain 24hr in | rain mn in | humidity % | barometer mb |
| 20260503174512 | 55 | 124 | 2.6 | 10.4 | 0.00 | 0.00 | 0.00 | 87 | 1016.0 |
| 20260503173008 | 54 | 323 | 2.6 | 8.7 | 0.00 | 0.00 | 0.00 | 87 | 1016.0 |
| 20260503171506 | 54 | 24 | 1.7 | 7.0 | 0.00 | 0.00 | 0.00 | 90 | 1015.8 |
| 20260503150109 | 52 | 53 | 0.0 | 2.6 | 0.00 | 0.00 | 0.00 | 87 | 1015.2 |
| 20260503081606 | 52 | 79 | 4.3 | 9.6 | 0.00 | 0.00 | 0.00 | 88 | 1014.5 |
| 20260503071548 | 52 | 26 | 0.0 | 4.3 | 0.00 | 0.00 | 0.00 | 87 | 1014.6 |
| 20260503054539 | 52 | 48 | 1.7 | 7.0 | 0.00 | 0.00 | 0.00 | 87 | 1015.1 |
| 20260503053033 | 52 | 37 | 2.6 | 7.0 | 0.00 | 0.00 | 0.00 | 87 | 1015.2 |
| 20260503051531 | 52 | 36 | 4.3 | 9.6 | 0.00 | 0.00 | 0.00 | 87 | 1015.2 |
| 20260503050031 | 52 | 54 | 2.6 | 7.8 | 0.00 | 0.00 | 0.00 | 87 | 1015.2 |
| 20260503044531 | 52 | 58 | 4.3 | 11.3 | 0.00 | 0.00 | 0.00 | 86 | 1015.0 |
| 20260503043031 | 52 | 44 | 2.6 | 9.6 | 0.00 | 0.00 | 0.00 | 86 | 1015.0 |
| 20260503041529 | 52 | 55 | 4.3 | 12.2 | 0.00 | 0.00 | 0.00 | 86 | 1014.7 |
| 20260503040027 | 52 | 34 | 3.5 | 11.3 | 0.00 | 0.00 | 0.00 | 86 | 1014.8 |
| 20260503034523 | 52 | 74 | 3.5 | 9.6 | 0.00 | 0.00 | 0.00 | 87 | 1014.7 |
| 20260503033027 | 52 | 42 | 2.6 | 11.3 | 0.00 | 0.00 | 0.00 | 86 | 1014.6 |
| 20260503031521 | 52 | 60 | 3.5 | 8.7 | 0.00 | 0.00 | 0.00 | 86 | 1014.4 |
| 20260503030019 | 53 | 56 | 5.2 | 12.2 | 0.00 | 0.00 | 0.00 | 85 | 1014.2 |
| 20260503024521 | 53 | 63 | 5.2 | 9.6 | 0.00 | 0.00 | 0.00 | 85 | 1014.1 |
| 20260503023017 | 53 | 39 | 4.3 | 11.3 | 0.00 | 0.00 | 0.00 | 85 | 1014.1 |
| 20260503021515 | 53 | 65 | 3.5 | 9.6 | 0.00 | 0.00 | 0.00 | 84 | 1014.2 |
| 20260503020012 | 53 | 18 | 6.1 | 10.4 | 0.00 | 0.00 | 0.00 | 83 | 1014.3 |
| 20260503014510 | 54 | 337 | 6.1 | 12.2 | 0.00 | 0.00 | 0.00 | 82 | 1014.2 |
| 20260503013009 | 54 | 46 | 5.2 | 12.2 | 0.00 | 0.00 | 0.00 | 82 | 1014.2 |
| 20260503011510 | 54 | 126 | 4.3 | 12.2 | 0.00 | 0.00 | 0.00 | 82 | 1014.3 |
| 20260503010008 | 55 | 328 | 4.3 | 12.2 | 0.00 | 0.00 | 0.00 | 81 | 1014.4 |
| 20260503004517 | 55 | 41 | 3.5 | 11.3 | 0.00 | 0.00 | 0.00 | 80 | 1014.5 |
| 20260503003004 | 55 | 6 | 4.3 | 13.0 | 0.00 | 0.00 | 0.00 | 80 | 1014.5 |
| 20260503001503 | 56 | 51 | 5.2 | 12.2 | 0.00 | 0.00 | 0.00 | 79 | 1014.6 |
| 20260503000001 | 57 | 57 | 5.2 | 12.2 | 0.00 | 0.00 | 0.00 | 78 | 1014.6 |
| 20260502234601 | 57 | 47 | 4.3 | 10.4 | 0.00 | 0.00 | 0.00 | 78 | 1014.7 |
| 20260502233101 | 55 | 44 | 6.1 | 13.0 | 0.00 | 0.00 | 0.00 | 80 | 1014.8 |
| 20260502231557 | 56 | 75 | 6.1 | 12.2 | 0.00 | 0.00 | 0.00 | 81 | 1015.1 |
| 20260502230055 | 56 | 82 | 5.2 | 10.4 | 0.00 | 0.00 | 0.00 | 79 | 1015.2 |
| 20260502224608 | 56 | 39 | 5.2 | 11.3 | 0.00 | 0.00 | 0.00 | 79 | 1015.3 |
| 20260502223057 | 57 | 25 | 5.2 | 12.2 | 0.00 | 0.00 | 0.00 | 77 | 1015.6 |
| 20260502221555 | 57 | 18 | 5.2 | 12.2 | 0.00 | 0.00 | 0.00 | 76 | 1015.8 |
| 20260502220053 | 57 | 39 | 3.5 | 10.4 | 0.00 | 0.00 | 0.00 | 77 | 1015.9 |
| 20260502214552 | 57 | 70 | 3.5 | 13.0 | 0.00 | 0.00 | 0.00 | 78 | 1016.1 |
| 20260502213105 | 56 | 6 | 2.6 | 10.4 | 0.00 | 0.00 | 0.00 | 80 | 1016.2 |
| 20260502211610 | 56 | 39 | 3.5 | 12.2 | 0.00 | 0.00 | 0.00 | 80 | 1016.2 |
| 20260502210050 | 56 | 359 | 5.2 | 13.0 | 0.00 | 0.00 | 0.00 | 80 | 1016.4 |
| 20260502204549 | 57 | 42 | 5.2 | 12.2 | 0.00 | 0.00 | 0.00 | 79 | 1016.5 |
| 20260502203057 | 57 | 56 | 4.3 | 9.6 | 0.00 | 0.00 | 0.00 | 81 | 1016.8 |
| 20260502201549 | 56 | 32 | 3.5 | 8.7 | 0.00 | 0.00 | 0.00 | 82 | 1017.0 |
| 20260502200044 | 55 | 49 | 5.2 | 12.2 | 0.00 | 0.00 | 0.00 | 85 | 1017.0 |
| 20260502194549 | 56 | 48 | 2.6 | 7.8 | 0.00 | 0.00 | 0.00 | 84 | 1017.1 |
| 20260502193039 | 55 | 44 | 1.7 | 8.7 | 0.00 | 0.00 | 0.00 | 86 | 1017.2 |
| 20260502191539 | 54 | 86 | 2.6 | 7.8 | 0.00 | 0.00 | 0.00 | 87 | 1017.1 |
| 20260502190041 | 54 | 63 | 2.6 | 7.0 | 0.00 | 0.00 | 0.00 | 88 | 1017.2 |
| 20260502184549 | 54 | 45 | 1.7 | 7.0 | 0.00 | 0.00 | 0.00 | 88 | 1017.1 |
| 20260502183049 | 54 | 103 | 1.7 | 9.6 | 0.00 | 0.00 | 0.00 | 88 | 1017.1 |
| 20260502181540 | 54 | 36 | 0.9 | 10.4 | 0.00 | 0.00 | 0.00 | 90 | 1017.1 |